{"data":{"norad_id":43445,"intl_designator":"2018-036E","name":"USA 285","alt_names":[],"object_type":"PAYLOAD","status":"ACTIVE","operator":null,"country":"US","launch_date":"2018-04-14","launch_site_code":"AFETR","launch_vehicle":null,"mission":null,"orbit_class":"UNKNOWN","rcs_meters":null,"size_class":null,"mass_kg":null,"dimensions":null,"purposes":[],"wikipedia_slug":null,"has_3d_model":false,"image_url":null,"decayed_at":null,"tle_current":{"epoch":"2026-05-25T03:31:09.861024Z","epoch_age_seconds":69352,"freshness":"FRESH","line1":"1 43445U 18036E   26145.14664191 -.00000077  00000+0  00000+0 0  9991","line2":"2 43445   7.0640  67.2269 0010716 168.4910  12.4002  1.02112913 26709","mean_motion":1.02112913,"eccentricity":0.0010716,"inclination_deg":7.064,"raan_deg":67.2269,"arg_perigee_deg":168.491,"mean_anomaly_deg":12.4002,"bstar":0,"rev_number":2670,"period_min":1410.2036242958,"perigee_km":35233.591678863,"apogee_km":35322.869605994,"semimajor_km":41656.367642428,"source":"CELESTRAK","updated_at":"2026-05-25T13:37:55.827546Z"}}}